Lancaster, OH

2:28 AM EST on January 17, 2018 (GMT -0500)
Fairfield County

Weather History for KLHQ - January, 2014

Change the Weather History Date:

Tuesday, January 21, 2014

  Actual Average Record
Temperature  
Mean Temperature 16 °F -  
Max Temperature 30 °F 35 °F 68 °F (1959)
Min Temperature 0 °F 17 °F -24 °F (1985)
Degree Days  
Heating Degree Days 48    
Moisture  
Dew Point 15 °F    
Average Humidity 79    
Maximum Humidity 93    
Minimum Humidity 56    
Precipitation  
Precipitation 0.03 in - - ()
Sea Level Pressure  
Sea Level Pressure 29.92 in    
Wind  
Wind Speed 10 mph (NNE)    
Max Wind Speed 21 mph    
Max Gust Speed 29 mph    
Visibility 5 miles    
Events Snow    
Averages and records for this station are not official NWS values.
T = Trace of Precipitation, MM = Missing Value Source: NWS Daily Summary

Daily Weather History Graph

Daily Weather History Graph

Search for Another Location

Airport or City:

Trip Planner

Search our weather history database for the weather conditions in past years. The results will help you decide how hot, cold, wet, or windy it might be!

Date:

Astronomy

Jan. 21, 2014 Rise Set
Actual Time 7:47 AM EST 5:37 PM EST
Civil Twilight 7:17 AM EST 6:06 PM EST
Nautical Twilight 6:44 AM EST 6:39 PM EST
Astronomical Twilight 6:12 AM EST 7:11 PM EST
Moon 11:08 PM EST (1/21) 10:16 AM EST (1/21)
Length of Visible Light 10h 48m
Length of Day
9h 50m
Waning Gibbous, 75% of the Moon is Illuminated
Jan 21
Waning Gibbous
Jan 24
Last Quarter
Jan 30
New
Feb 6
First Quarter
Feb 14
Full

Hourly Weather History & Observations

Time (EST) Temp. Windchill Dew Point Humidity Pressure Visibility Wind Dir Wind Speed Gust Speed Precip Events Conditions
12:53 AM 30.0 °F 25.2 °F 25.0 °F 82% 29.88 in 9.0 mi East 4.6 mph - N/A   Overcast
1:53 AM 28.9 °F 22.8 °F 25.0 °F 85% 29.87 in 2.5 mi SE 5.8 mph - 0.00 in Snow Light Snow
1:57 AM 28.9 °F 21.9 °F 25.0 °F 85% 29.84 in 2.0 mi SE 6.9 mph - 0.00 in Snow Light Snow
2:07 AM 28.9 °F 21.9 °F 25.0 °F 85% 29.84 in 1.5 mi SE 6.9 mph - 0.00 in Snow Light Snow
2:40 AM 28.9 °F 21.1 °F 26.1 °F 89% 29.83 in 2.0 mi SE 8.1 mph - 0.00 in Snow Light Snow
2:53 AM 28.9 °F 21.9 °F 26.1 °F 89% 29.85 in 3.0 mi SE 6.9 mph - 0.00 in Snow Light Snow
3:50 AM 28.4 °F 22.2 °F 24.8 °F 86% 29.82 in 2.0 mi East 5.8 mph - 0.00 in Snow Light Snow
3:53 AM 28.9 °F 22.8 °F 25.0 °F 85% 29.83 in 1.8 mi East 5.8 mph - 0.00 in Snow Light Snow
4:02 AM 28.9 °F 23.9 °F 26.1 °F 89% 29.81 in 1.8 mi East 4.6 mph - 0.00 in Snow Light Snow
4:11 AM 28.0 °F 21.7 °F 26.1 °F 92% 29.80 in 2.0 mi East 5.8 mph - 0.00 in Snow Light Snow
4:18 AM 28.9 °F 23.9 °F 26.1 °F 89% 29.80 in 2.0 mi ENE 4.6 mph - 0.00 in Snow Light Snow
4:25 AM 28.9 °F 23.9 °F 26.1 °F 89% 29.80 in 2.5 mi ENE 4.6 mph - 0.00 in Snow Light Snow
4:32 AM 28.9 °F 23.9 °F 26.1 °F 89% 29.80 in 3.0 mi ENE 4.6 mph - 0.00 in Snow Light Snow
4:37 AM 28.9 °F 23.9 °F 26.1 °F 89% 29.80 in 2.5 mi ENE 4.6 mph - 0.00 in Snow Light Snow
4:50 AM 28.4 °F 23.3 °F 26.6 °F 93% 29.80 in 1.8 mi NE 4.6 mph - 0.00 in Snow Light Snow
4:53 AM 28.9 °F 22.8 °F 26.1 °F 89% 29.83 in 1.5 mi NE 5.8 mph - 0.00 in Snow Light Snow
5:11 AM 28.0 °F 19.3 °F 25.0 °F 88% 29.81 in 1.0 mi NE 9.2 mph - 0.01 in Snow Light Snow
5:13 AM 28.0 °F 19.3 °F 25.0 °F 88% 29.81 in 1.0 mi NE 9.2 mph - 0.01 in Snow Light Snow
5:20 AM 28.0 °F 18.1 °F 25.0 °F 88% 29.81 in 1.0 mi NNE 11.5 mph - 0.01 in Snow Light Snow
5:53 AM 25.0 °F 12.6 °F 21.9 °F 88% 29.85 in 0.8 mi NNE 15.0 mph - 0.02 in Snow Light Snow
6:04 AM 24.1 °F 10.1 °F 21.0 °F 88% 29.82 in 1.0 mi NNE 18.4 mph - 0.00 in Snow Light Snow
6:11 AM 24.1 °F 11.5 °F 19.9 °F 84% 29.83 in 1.2 mi NNE 15.0 mph - 0.00 in Snow Light Snow
6:18 AM 24.1 °F 11.0 °F 19.9 °F 84% 29.83 in 1.2 mi NNE 16.1 mph - 0.00 in Snow Light Snow
6:53 AM 23.0 °F 10.6 °F 19.0 °F 85% 29.87 in 1.5 mi NNE 13.8 mph 23.0 mph 0.01 in Snow Light Snow
7:05 AM 21.9 °F 8.2 °F 18.0 °F 85% 29.85 in 1.8 mi North 16.1 mph - 0.00 in Snow Light Snow
7:14 AM 21.9 °F 6.5 °F 17.1 °F 82% 29.85 in 2.0 mi NNE 20.7 mph - 0.00 in Snow Light Snow
7:41 AM 19.9 °F 4.3 °F 16.0 °F 85% 29.86 in 2.5 mi NNE 19.6 mph 25.3 mph 0.00 in Snow Light Snow
7:49 AM 19.4 °F 5.0 °F 15.8 °F 86% 29.86 in 3.0 mi NNE 16.1 mph - 0.00 in Snow Light Snow
7:53 AM 19.9 °F 4.8 °F 15.1 °F 81% 29.90 in 2.5 mi NNE 18.4 mph 25.3 mph 0.00 in Snow Light Snow
8:01 AM 19.9 °F 6.2 °F 16.0 °F 85% 29.87 in 1.8 mi NNE 15.0 mph 25.3 mph 0.00 in Snow Light Snow
8:14 AM 19.9 °F 6.7 °F 15.1 °F 81% 29.88 in 2.0 mi NNE 13.8 mph - 0.00 in Snow Light Snow
8:23 AM 19.0 °F 4.0 °F 14.0 °F 81% 29.88 in 1.8 mi NNE 17.3 mph 23.0 mph 0.00 in Snow Light Snow
8:42 AM 19.0 °F 3.2 °F 14.0 °F 81% 29.89 in 2.5 mi NNE 19.6 mph - 0.00 in Snow Light Snow
8:53 AM 19.0 °F 5.0 °F 14.0 °F 81% 29.93 in 3.0 mi North 15.0 mph - 0.00 in Snow Light Snow
9:01 AM 19.0 °F 3.2 °F 12.0 °F 74% 29.89 in 4.0 mi North 19.6 mph 27.6 mph 0.00 in Snow Light Snow
9:30 AM 18.0 °F 2.6 °F 12.0 °F 78% 29.91 in 8.0 mi North 17.3 mph - 0.00 in   Overcast
9:41 AM 18.0 °F 2.6 °F 10.9 °F 74% 29.91 in 4.0 mi North 17.3 mph - 0.00 in Snow Light Snow
9:53 AM 18.0 °F 4.2 °F 12.0 °F 78% 29.96 in 2.0 mi North 13.8 mph 23.0 mph 0.00 in Snow Light Snow
10:03 AM 19.0 °F 5.0 °F 10.9 °F 71% 29.92 in 3.0 mi NNE 15.0 mph 24.2 mph 0.00 in Snow Light Snow
10:42 AM 19.0 °F 4.5 °F 10.9 °F 71% 29.94 in 9.0 mi North 16.1 mph 28.8 mph 0.00 in   Overcast
10:53 AM 19.0 °F 3.2 °F 10.9 °F 71% 29.98 in 10.0 mi North 19.6 mph 25.3 mph 0.00 in   Overcast
11:11 AM 18.0 °F 2.2 °F 10.0 °F 71% 29.95 in 6.0 mi North 18.4 mph 26.5 mph 0.00 in Snow Light Snow
11:53 AM 18.0 °F 1.3 °F 9.0 °F 68% 29.99 in 8.0 mi North 20.7 mph 26.5 mph 0.00 in Snow Light Snow
12:14 PM 19.0 °F 4.5 °F 10.0 °F 68% 29.96 in 10.0 mi North 16.1 mph - 0.00 in   Overcast
12:53 PM 19.9 °F 5.7 °F 10.0 °F 65% 29.98 in 10.0 mi North 16.1 mph - 0.00 in   Overcast
1:53 PM 19.0 °F 5.6 °F 9.0 °F 65% 29.99 in 10.0 mi North 13.8 mph 25.3 mph 0.00 in   Overcast
2:14 PM 18.0 °F 3.1 °F 8.1 °F 65% 29.95 in 10.0 mi North 16.1 mph 25.3 mph N/A   Overcast
2:53 PM 18.0 °F 3.6 °F 6.1 °F 60% 30.00 in 10.0 mi North 15.0 mph - N/A   Overcast
3:53 PM 17.1 °F 2.5 °F 3.9 °F 56% 30.03 in 10.0 mi North 15.0 mph - N/A   Overcast
4:53 PM 15.1 °F 0.5 °F 1.9 °F 56% 30.07 in 10.0 mi North 13.8 mph - N/A   Mostly Cloudy
5:53 PM 12.9 °F -3.4 °F -0.0 °F 56% 30.12 in 10.0 mi North 16.1 mph 21.9 mph N/A   Clear
6:53 PM 10.9 °F -1.8 °F -0.9 °F 59% 30.14 in 10.0 mi North 9.2 mph - N/A   Clear
7:53 PM 9.0 °F -6.6 °F -0.9 °F 64% 30.17 in 10.0 mi NNW 12.7 mph - N/A   Clear
8:53 PM 7.0 °F -6.6 °F -2.0 °F 67% 30.17 in 10.0 mi North 9.2 mph - N/A   Clear
9:53 PM 7.0 °F -4.5 °F -2.0 °F 67% 30.18 in 10.0 mi North 6.9 mph - N/A   Clear
10:53 PM 3.0 °F -4.4 °F -4.0 °F 73% 30.19 in 10.0 mi North 3.5 mph - N/A   Clear
11:53 PM -0.0 °F - -5.1 °F 79% 30.18 in 10.0 mi Calm Calm - N/A   Clear